Regional Weather Roundup
Issued by NWS

Home | Current Version | Previous Version | Graphics & Text | Print | Product List | Glossary Off
Versions: 1 2 3 4 5 6 7 8 9 10 11 12 13 14 15 16 17 18 19 20 21 22 23 24 25 26 27 28 29 30 31 32 33 34 35 36 37 38 39 40 41 42 43 44 45 46 47 48 49 50

000
ASUS43 KMPX 011810
RWRMN
WEATHER ROUNDUP FOR MINNESOTA
NATIONAL WEATHER SERVICE TWIN CITIES/CHANHASSEN MN
100 PM CDT WED OCT 01 2014


NOTE: "FAIR" INDICATES FEW OR NO CLOUDS BELOW 12,000 FEET WITH NO
SIGNIFICANT WEATHER AND/OR OBSTRUCTIONS TO VISIBILITY. N/A MEANS
CURRENT SKY AND/OR WEATHER CONDITIONS ARE NOT AVAILABLE.

MNZ060>063-068>070-011900-
   Twin Cities Metro

CITY           SKY/WX    TMP DP  RH WIND       PRES   REMARKS
TWIN CITIES    LGT RAIN  51  50  96 SE6       29.82S
6HR MIN TEMP:  50; 6HR MAX TEMP:  51; 6HR PCP:  0.66;

ST PAUL        RAIN      51  50  96 SE7       29.83S FOG
CRYSTAL        LGT RAIN  53  49  86 SE8       29.80F
BLAINE         CLOUDY    54  52  94 SE12      29.81S
LAKEVILLE      DRIZZLE   50  50 100 SE3       29.81S
EDEN PRAIRIE   LGT RAIN  53  51  93 SE7       29.80F
6HR MIN TEMP:  50; 6HR MAX TEMP:  53; 6HR PCP:  0.35;

SOUTH ST PAUL  LGT RAIN  51  50  96 SE3       29.82S
LAKE ELMO      RAIN      50  50 100 SE3       29.83F
$$
MNZ001>005-007-008-013>017-022>024-027-028-011900-
   Northwest Minnesota

CITY           SKY/WX    TMP DP  RH WIND       PRES   REMARKS
BEMIDJI        CLOUDY    56  52  85 SE13      29.69F
HALLOCK        FAIR      64  55  72 S20       29.54S
ROSEAU         PTSUNNY   64  55  72 SW17G26   29.58F
WARROAD        PTSUNNY   64  57  77 S15G24    29.59F
THIEF RVR FALL CLOUDY    64  54  68 SW16      29.60F
CROOKSTON      PTSUNNY   66  54  63 SW17G24   29.61S
FOSSTON        CLOUDY    63  54  72 S18G25    29.64S
DETROIT LAKES  CLOUDY    61  55  82 SE12      29.68F
PARK RAPIDS    CLOUDY    53  51  93 SE15      29.71F FOG
MAHNOMEN       CLOUDY    62  56  79 S12G20    29.64F
$$
MNZ006-009>011-018-025>026-011900-
   North Central Minnesota

CITY           SKY/WX    TMP DP  RH WIND       PRES   REMARKS
BAUDETTE       CLOUDY    59  53  80 S15G24    29.63F
FLAG ISLAND    CLOUDY    59  55  88 S21G26    29.57S
INTL FALLS     CLOUDY    52  47  83 VRB7G17   29.72S
6HR MIN TEMP:  51; 6HR MAX TEMP:  53;

WASKISH        CLOUDY    55  52  88 SE13G18   29.67F
BIG FORK       CLOUDY    52  48  87 S13G18    29.74F FOG
LONGVILLE      CLOUDY    52  48  87 SE10      29.74F
GRAND RAPIDS   CLOUDY    48  46  93 SE9       29.76F
CRANE LAKE     CLOUDY    52  46  82 S6        29.78S
ORR            CLOUDY    52  46  82 S13G26    29.74S
COOK           DRIZZLE   50  46  87 S8G18     29.78F
WALKER         CLOUDY    52  49  90 S9        29.72F
$$
MNZ012-019>021-037-011900-
   Northeast Minnesota

CITY           SKY/WX    TMP DP  RH WIND       PRES   REMARKS
DULUTH         LGT RAIN  49  46  90 SE12      29.82F FOG
6HR MIN TEMP:  47; 6HR MAX TEMP:  49; 6HR PCP:  0.37;

ELY            LGT RAIN  48  46  93 S8        29.81F
HIBBING        LGT RAIN  50  47  89 S8        29.79F
EVELETH        RAIN      50  48  93 SE7       29.81F
DULUTH HARBOR  LGT RAIN  50  48  93 CALM      29.84F
TWO HARBORS    LGT RAIN  46  43  87 E6        29.83F
SILVER BAY     DRIZZLE   45  45 100 E5        29.84F
GRAND MARAIS     N/A     50  46  86 E5        29.88F
G MARAIS ARPRT DRIZZLE   43  41  93 SE7       29.88S
$$
MNZ029>031-032-039>041-046>048-054>057-064-011900-
   West Central Minnesota

CITY           SKY/WX    TMP DP  RH WIND       PRES   REMARKS
FERGUS FALLS   PTSUNNY   64  55  72 SE12      29.68F
WHEATON        FAIR      68  54  60 SW9G16    29.70S
MORRIS         FAIR      68  63  83 SE12      29.69F
ALEXANDRIA     CLOUDY    58  56  93 S8        29.74S FOG
ELBOW LAKE     FAIR      65  59  81 S10       29.69F
WADENA         CLOUDY    55  52  88 S10       29.72S
GLENWOOD       CLOUDY    57  55  94 SE9       29.74S FOG
APPLETON       PTSUNNY   66  59  77 SE7       29.70S
BENSON         LGT RAIN  63  59  88 S5        29.72R
ORTONVILLE     FAIR      73  55  53 W7        29.69S
MADISON        FAIR      72  61  68 S3        29.70S
WILLMAR        CLOUDY    63  54  72 SE12G17   29.75F
$$
MNZ033>034-036-042>043-049>051-058-059-011900-
   Central Minnesota

CITY           SKY/WX    TMP DP  RH WIND       PRES   REMARKS
ST CLOUD       CLOUDY    55  51  86 SE12      29.77F
6HR MIN TEMP:  52; 6HR MAX TEMP:  55; 6HR PCP:  0.01;

SAUK CENTRE    CLOUDY    55  53  94 SE12      29.74S FOG
PAYNESVILLE    CLOUDY    54  52  93 E9        29.76S
AITKIN         MIX PCPN  52  46  82 SE8       29.76S
PINE RIVER     CLOUDY    52  48  87 SE10      29.78F
BRAINERD       CLOUDY    52  49  89 S9        29.76F
STAPLES        CLOUDY    52  50  93 SE6       29.74S FOG
LONG PRAIRIE   CLOUDY    52  52 100 SE12      29.75S FOG
LITTLE FALLS   CLOUDY    52  48  87 SE12      29.76S
LITCHFIELD     CLOUDY    57  55  94 SE7       29.77S
BUFFALO        CLOUDY    53  50  87 SE3       29.80F
MAPLE LAKE     CLOUDY    54  53  95 SE8       29.78F
$$
MNZ037-044-045-052-053-011900-
   East Central Minnesota

CITY           SKY/WX    TMP DP  RH WIND       PRES   REMARKS
PRINCETON      CLOUDY    54  52  94 SE7       29.80F
MORA           DRIZZLE   48  46  93 S7        29.83R
CAMBRIDGE      RAIN      52  45  76 SE5       29.80R
RUSH CITY      LGT RAIN  49  48  94 SE7       29.82F
MOOSE LAKE     DRIZZLE   50  48  93 S6        29.79F
HINCKLEY       DRIZZLE   50  50 100 SE9       29.81F
CLOQUET        LGT RAIN  48  46  93 SE6       29.81F
MCGREGOR       CLOUDY    50  48  93 SE9       29.78F
$$
MNZ071>073-080-081-089-090-097-098-011900-
   Southwest Minnesota

CITY           SKY/WX    TMP DP  RH WIND       PRES   REMARKS
MONTEVIDEO     FAIR      70  63  78 S7        29.72S
GRANITE FALLS  FAIR      67  57  71 SE10      29.74S
CANBY          FAIR      70  60  70 CALM      29.71F
MARSHALL       PTSUNNY   72  57  60 SW6       29.71S
REDWOOD FALLS  CLOUDY    62  55  77 S14       29.74F
OLIVIA         CLOUDY    61  54  77 SE13      29.74S
PIPESTONE      CLOUDY    70  59  68 W6        29.73S
WINDOM         FAIR      64  57  77 S6        29.74F
WORTHINGTON    CLOUDY    63  57  82 S6        29.75S
JACKSON        PTSUNNY   63  55  77 SE7       29.76S
TRACY          FAIR      67  59  75 SE6       29.73S
SLAYTON        FAIR      69  59  69 E9        29.73S
$$
MNZ065>067-074>077-082>085-091>093-011900-
   South Central Minnesota

CITY           SKY/WX    TMP DP  RH WIND       PRES   REMARKS
MANKATO        CLOUDY    54  48  82 S7        29.79F
NEW ULM          N/A     57  55  94 SE10      29.76F
ST JAMES       CLOUDY    57  54  88 SE8       29.78F
FAIRMONT       CLOUDY    57  54  88 SE9       29.77F
GLENCOE        CLOUDY    56  53  90 SE8       29.78F
FARIBAULT      LGT RAIN  54  52  94 SE5       29.81S
OWATONNA       DRIZZLE   54  52  94 S3        29.81S
WASECA         CLOUDY    50  46  87 SE3       29.81F FOG
ALBERT LEA     CLOUDY    55  54  94 S9        29.80S FOG
$$
MNZ078>079-086>088-094>096-011900-
   Southeast Minnesota

CITY           SKY/WX    TMP DP  RH WIND       PRES   REMARKS
ROCHESTER      CLOUDY    54  52  93 S10       29.83S FOG
6HR MIN TEMP:  48; 6HR MAX TEMP:  54; 6HR PCP:  0.38;

RED WING       LGT RAIN  52  52 100 SE8       29.81S
STANTON        RAIN      53  51  91 CALM      29.81S
DODGE CENTER   LGT RAIN  54  54 100 S13       29.81S
WINONA         CLOUDY    54  52  94 SE7       29.85F
AUSTIN         CLOUDY    54  52  94 S8        29.81S FOG
PRESTON        CLOUDY    54  51  89 S8        29.85R
$$
ABBREVIATIONS USED IN REMARKS
   TC - TEMPERATURES IN CELSIUS
  WCI - WIND CHILL INDEX
   HX - HEAT INDEX
  VSB - VISIBILITY
$$


USA.gov is the U.S. government's official web portal to all federal, state and local government web resources and services.